| time (UTC) | temp F | wind direction | speed MPH | gust MPH | rain 1hr in | rain 24hr in | rain mn in | humidity % | barometer mb |
| 20260506082204 | 46 | 86 | 1.0 | 5.0 | 0.03 | 0.39 | 0.39 | 90 | 1007.4 |
| 20260506081704 | 46 | 21 | 0.0 | 1.0 | 0.04 | 0.39 | 0.39 | 91 | 1007.3 |
| 20260506081512 | 46 | 12 | 0.0 | 0.0 | 0.04 | 0.39 | 0.39 | 91 | 1006.1 |
| 20260506081204 | 46 | 37 | 0.0 | 0.0 | 0.03 | 0.39 | 0.39 | 90 | 1007.3 |
| 20260506080705 | 46 | 53 | 2.0 | 6.0 | 0.03 | 0.39 | 0.39 | 90 | 1007.3 |
| 20260506080512 | 46 | 29 | 0.0 | 0.0 | 0.03 | 0.39 | 0.39 | 90 | 1006.1 |
| 20260506073512 | 45 | 68 | 2.0 | 8.0 | 0.02 | 0.36 | 0.36 | 91 | 1006.0 |
| 20260506073204 | 45 | 47 | 2.0 | 7.0 | 0.02 | 0.37 | 0.36 | 91 | 1007.2 |
| 20260506072704 | 45 | 68 | 1.0 | 5.0 | 0.03 | 0.37 | 0.36 | 91 | 1007.2 |
| 20260506072511 | 45 | 76 | 0.0 | 1.0 | 0.03 | 0.36 | 0.36 | 91 | 1006.0 |
| 20260506072204 | 45 | 33 | 0.0 | 0.0 | 0.03 | 0.37 | 0.36 | 91 | 1007.2 |
| 20260506071704 | 45 | 33 | 0.0 | 0.0 | 0.02 | 0.36 | 0.35 | 91 | 1007.2 |
| 20260506071511 | 45 | 2 | 0.0 | 0.0 | 0.03 | 0.35 | 0.35 | 91 | 1006.0 |
| 20260506070704 | 45 | 51 | 0.0 | 0.0 | 0.04 | 0.36 | 0.35 | 91 | 1007.1 |
| 20260506070512 | 45 | 356 | 0.0 | 0.0 | 0.04 | 0.35 | 0.35 | 91 | 1005.9 |
| 20260506070204 | 45 | 38 | 0.0 | 0.0 | 0.04 | 0.36 | 0.35 | 91 | 1007.1 |
| 20260506062511 | 45 | 50 | 0.0 | 0.0 | 0.06 | 0.33 | 0.33 | 91 | 1005.7 |
| 20260506062204 | 45 | 74 | 0.0 | 3.0 | 0.06 | 0.34 | 0.33 | 91 | 1006.9 |
| 20260506061704 | 45 | 48 | 3.0 | 13.0 | 0.06 | 0.34 | 0.33 | 91 | 1006.8 |
| 20260506061511 | 44 | 69 | 3.0 | 10.0 | 0.06 | 0.32 | 0.32 | 91 | 1005.7 |
| 20260506061204 | 45 | 47 | 3.0 | 10.0 | 0.06 | 0.33 | 0.32 | 91 | 1006.8 |
| 20260506060704 | 45 | 63 | 3.0 | 9.0 | 0.06 | 0.32 | 0.31 | 91 | 1006.8 |
| 20260506060512 | 45 | 53 | 3.0 | 9.0 | 0.06 | 0.31 | 0.31 | 91 | 1005.6 |
| 20260506060204 | 45 | 53 | 2.0 | 10.0 | 0.06 | 0.32 | 0.31 | 91 | 1006.8 |
| 20260506051204 | 45 | 32 | 0.0 | 0.0 | 0.06 | 0.28 | 0.27 | 91 | 1006.8 |
| 20260506050706 | 45 | 42 | 0.0 | 1.0 | 0.06 | 0.28 | 0.26 | 91 | 1006.8 |
| 20260506050512 | 45 | 52 | 0.0 | 0.0 | 0.06 | 0.26 | 0.26 | 91 | 1005.6 |
| 20260506050206 | 45 | 40 | 0.0 | 0.0 | 0.06 | 0.28 | 0.26 | 91 | 1006.8 |
| 20260506044706 | 46 | 15 | 0.0 | 0.0 | 0.06 | 0.28 | 0.24 | 91 | 1006.8 |
| 20260506044206 | 46 | 9 | 0.0 | 0.0 | 0.06 | 0.28 | 0.24 | 91 | 1006.8 |
| 20260506043705 | 46 | 338 | 0.0 | 1.0 | 0.06 | 0.28 | 0.23 | 91 | 1006.8 |
| 20260506043511 | 46 | 306 | 0.0 | 1.0 | 0.06 | 0.23 | 0.23 | 91 | 1005.6 |
| 20260506043206 | 46 | 78 | 0.0 | 2.0 | 0.06 | 0.27 | 0.22 | 91 | 1006.8 |
| 20260506042705 | 46 | 63 | 0.0 | 0.0 | 0.06 | 0.27 | 0.22 | 91 | 1006.8 |
| 20260506042512 | 46 | 350 | 0.0 | 0.0 | 0.06 | 0.22 | 0.22 | 91 | 1005.6 |
| 20260506042205 | 46 | 27 | 0.0 | 3.0 | 0.06 | 0.26 | 0.21 | 91 | 1006.7 |
| 20260506041706 | 46 | 59 | 0.0 | 1.0 | 0.06 | 0.27 | 0.21 | 91 | 1006.7 |
| 20260506041511 | 47 | 345 | 0.0 | 0.0 | 0.06 | 0.20 | 0.20 | 91 | 1005.5 |
| 20260506041205 | 46 | 350 | 0.0 | 0.0 | 0.06 | 0.26 | 0.20 | 91 | 1006.8 |
| 20260506040705 | 47 | 54 | 0.0 | 0.0 | 0.06 | 0.26 | 0.20 | 91 | 1006.7 |
| 20260506040206 | 47 | 45 | 0.0 | 1.0 | 0.06 | 0.26 | 0.20 | 91 | 1006.7 |
| 20260506035705 | 47 | 351 | 0.0 | 1.0 | 0.07 | 0.26 | 0.20 | 90 | 1006.7 |
| 20260506035511 | 47 | 14 | 0.0 | 1.0 | 0.06 | 0.19 | 0.19 | 90 | 1005.5 |
| 20260506035205 | 47 | 41 | 0.0 | 0.0 | 0.07 | 0.25 | 0.19 | 90 | 1006.7 |
| 20260506034705 | 47 | 23 | 0.0 | 5.0 | 0.06 | 0.24 | 0.18 | 90 | 1006.7 |
| 20260506034511 | 47 | 71 | 0.0 | 5.0 | 0.07 | 0.18 | 0.18 | 90 | 1005.5 |
| 20260506034205 | 47 | 346 | 0.0 | 0.0 | 0.06 | 0.24 | 0.17 | 90 | 1006.7 |
| 20260506033706 | 47 | 18 | 0.0 | 3.0 | 0.07 | 0.24 | 0.17 | 90 | 1006.7 |
| 20260506033511 | 47 | 61 | 0.0 | 3.0 | 0.06 | 0.17 | 0.17 | 90 | 1005.6 |
| 20260506032705 | 48 | 0 | 0.0 | 0.0 | 0.07 | 0.23 | 0.16 | 90 | 1006.8 |
| 20260506032511 | 48 | 32 | 0.0 | 0.0 | 0.07 | 0.16 | 0.16 | 90 | 1005.6 |
| 20260506032206 | 48 | 53 | 0.0 | 2.0 | 0.07 | 0.24 | 0.16 | 91 | 1006.8 |
| 20260506031705 | 48 | 345 | 0.0 | 2.0 | 0.07 | 0.23 | 0.15 | 90 | 1006.8 |
| 20260506031511 | 48 | 22 | 0.0 | 3.0 | 0.07 | 0.15 | 0.15 | 90 | 1005.7 |
| 20260506031205 | 48 | 32 | 0.0 | 0.0 | 0.08 | 0.24 | 0.15 | 90 | 1006.9 |
| 20260506030706 | 48 | 17 | 0.0 | 0.0 | 0.07 | 0.23 | 0.14 | 90 | 1006.9 |
| 20260506030512 | 48 | 340 | 0.0 | 0.0 | 0.06 | 0.13 | 0.13 | 90 | 1005.7 |
| 20260506025706 | 48 | 9 | 0.0 | 0.0 | 0.06 | 0.23 | 0.13 | 90 | 1006.9 |
| 20260506025511 | 48 | 282 | 0.0 | 0.0 | 0.07 | 0.13 | 0.13 | 90 | 1005.7 |
| 20260506025205 | 48 | 53 | 0.0 | 0.0 | 0.06 | 0.22 | 0.12 | 90 | 1006.9 |
| 20260506024706 | 48 | 7 | 0.0 | 1.0 | 0.07 | 0.23 | 0.12 | 90 | 1006.9 |
| 20260506024511 | 48 | 356 | 0.0 | 0.0 | 0.06 | 0.11 | 0.11 | 90 | 1005.8 |
| 20260506024206 | 48 | 17 | 0.0 | 0.0 | 0.06 | 0.22 | 0.11 | 90 | 1006.9 |
| 20260506023705 | 49 | 338 | 0.0 | 2.0 | 0.06 | 0.22 | 0.10 | 89 | 1007.0 |
| 20260506023511 | 49 | 350 | 0.0 | 2.0 | 0.06 | 0.10 | 0.10 | 89 | 1005.9 |
| 20260506023206 | 49 | 335 | 0.0 | 0.0 | 0.06 | 0.22 | 0.09 | 90 | 1007.0 |
| 20260506022706 | 49 | 43 | 0.0 | 0.0 | 0.06 | 0.21 | 0.09 | 89 | 1006.9 |
| 20260506022511 | 49 | 2 | 0.0 | 0.0 | 0.06 | 0.09 | 0.09 | 89 | 1005.9 |
| 20260506022205 | 49 | 10 | 0.0 | 0.0 | 0.06 | 0.21 | 0.09 | 89 | 1006.9 |
| 20260506021705 | 49 | 0 | 0.0 | 8.0 | 0.06 | 0.21 | 0.08 | 89 | 1007.0 |
| 20260506021511 | 49 | 13 | 0.0 | 8.0 | 0.06 | 0.08 | 0.08 | 89 | 1006.0 |
| 20260506021205 | 49 | 2 | 0.0 | 2.0 | 0.06 | 0.20 | 0.07 | 89 | 1007.0 |
| 20260506020512 | 50 | 32 | 0.0 | 1.0 | 0.06 | 0.07 | 0.07 | 89 | 1006.0 |
| 20260506020205 | 50 | 13 | 0.0 | 0.0 | 0.05 | 0.20 | 0.06 | 89 | 1007.1 |
| 20260506015511 | 50 | 11 | 0.0 | 0.0 | 0.05 | 0.06 | 0.06 | 89 | 1006.1 |
| 20260506015206 | 50 | 355 | 0.0 | 0.0 | 0.05 | 0.20 | 0.06 | 89 | 1007.2 |
| 20260506014705 | 50 | 12 | 0.0 | 0.0 | 0.04 | 0.19 | 0.05 | 89 | 1007.2 |
| 20260506013706 | 51 | 40 | 0.0 | 0.0 | 0.03 | 0.18 | 0.04 | 88 | 1007.3 |
| 20260506013511 | 51 | 32 | 0.0 | 0.0 | 0.03 | 0.04 | 0.04 | 88 | 1006.2 |
| 20260506013205 | 51 | 10 | 0.0 | 1.0 | 0.03 | 0.18 | 0.03 | 88 | 1007.3 |
| 20260506012705 | 51 | 259 | 0.0 | 2.0 | 0.03 | 0.18 | 0.03 | 88 | 1007.3 |
| 20260506012511 | 51 | 310 | 0.0 | 1.0 | 0.03 | 0.03 | 0.03 | 88 | 1006.2 |
| 20260506012206 | 51 | 345 | 0.0 | 0.0 | 0.02 | 0.17 | 0.02 | 88 | 1007.3 |
| 20260506011705 | 51 | 9 | 0.0 | 0.0 | 0.02 | 0.17 | 0.02 | 88 | 1007.3 |
| 20260506011206 | 51 | 2 | 0.0 | 0.0 | 0.02 | 0.17 | 0.02 | 87 | 1007.4 |
| 20260506010705 | 51 | 357 | 0.0 | 0.0 | 0.02 | 0.17 | 0.02 | 87 | 1007.3 |
| 20260506010511 | 51 | 333 | 0.0 | 0.0 | 0.02 | 0.02 | 0.02 | 87 | 1006.3 |
| 20260506010206 | 51 | 328 | 0.0 | 0.0 | 0.02 | 0.17 | 0.02 | 87 | 1007.3 |
| 20260506005511 | 51 | 350 | 0.0 | 0.0 | 0.01 | 0.01 | 0.01 | 86 | 1006.4 |
| 20260506005206 | 52 | 350 | 0.0 | 0.0 | 0.01 | 0.17 | 0.01 | 85 | 1007.4 |
| 20260506004705 | 52 | 357 | 0.0 | 0.0 | 0.01 | 0.17 | 0.01 | 85 | 1007.4 |
| 20260506004511 | 52 | 356 | 0.0 | 0.0 | 0.01 | 0.01 | 0.01 | 85 | 1006.3 |
| 20260506004205 | 52 | 14 | 0.0 | 0.0 | 0.01 | 0.17 | 0.01 | 85 | 1007.4 |
| 20260506003706 | 52 | 35 | 0.0 | 0.0 | 0.01 | 0.17 | 0.01 | 85 | 1007.5 |
| 20260506003511 | 52 | 35 | 0.0 | 0.0 | 0.01 | 0.01 | 0.01 | 84 | 1006.4 |
| 20260506003205 | 52 | 13 | 0.0 | 0.0 | 0.00 | 0.16 | 0.00 | 84 | 1007.6 |
| 20260506002705 | 52 | 14 | 0.0 | 0.0 | 0.00 | 0.16 | 0.00 | 85 | 1007.6 |
| 20260506002511 | 52 | 24 | 0.0 | 0.0 | 0.00 | 0.00 | 0.00 | 85 | 1006.5 |
| 20260506002205 | 52 | 56 | 0.0 | 0.0 | 0.00 | 0.16 | 0.00 | 85 | 1007.6 |
| 20260506001706 | 52 | 325 | 0.0 | 0.0 | 0.00 | 0.16 | 0.00 | 86 | 1007.6 |
| 20260506001512 | 53 | 350 | 0.0 | 0.0 | 0.00 | 0.00 | 0.00 | 85 | 1006.6 |
| 20260506001205 | 53 | 12 | 0.0 | 0.0 | 0.00 | 0.16 | 0.00 | 85 | 1007.7 |
| 20260506000706 | 53 | 13 | 0.0 | 0.0 | 0.00 | 0.16 | 0.00 | 85 | 1007.7 |
| 20260506000511 | 53 | 13 | 0.0 | 0.0 | 0.00 | 0.00 | 0.00 | 85 | 1006.6 |
| 20260506000206 | 53 | 25 | 0.0 | 0.0 | 0.00 | 0.17 | 0.00 | 85 | 1007.7 |
| 20260505235705 | 53 | 54 | 0.0 | 0.0 | 0.00 | 0.17 | 0.00 | 85 | 1007.8 |
| 20260505235511 | 53 | 66 | 0.0 | 0.0 | 0.00 | 0.00 | 0.00 | 85 | 1006.7 |
| 20260505235205 | 53 | 55 | 0.0 | 0.0 | 0.00 | 0.17 | 0.00 | 85 | 1007.8 |
| 20260505234706 | 53 | 43 | 0.0 | 0.0 | 0.00 | 0.17 | 0.00 | 85 | 1007.9 |
| 20260505234512 | 53 | 13 | 0.0 | 0.0 | 0.00 | 0.00 | 0.00 | 85 | 1006.8 |
| 20260505234205 | 53 | 29 | 0.0 | 0.0 | 0.00 | 0.17 | 0.00 | 85 | 1007.9 |
| 20260505233706 | 53 | 314 | 0.0 | 0.0 | 0.00 | 0.18 | 0.00 | 85 | 1007.9 |
| 20260505233511 | 53 | 13 | 0.0 | 0.0 | 0.00 | 0.00 | 0.00 | 85 | 1006.9 |
| 20260505233205 | 53 | 358 | 0.0 | 0.0 | 0.00 | 0.18 | 0.00 | 85 | 1008.0 |
| 20260505232705 | 53 | 40 | 0.0 | 0.0 | 0.00 | 0.18 | 0.00 | 85 | 1008.0 |
| 20260505232511 | 53 | 252 | 0.0 | 0.0 | 0.00 | 0.00 | 0.00 | 85 | 1006.9 |
| 20260505232206 | 53 | 354 | 0.0 | 0.0 | 0.00 | 0.19 | 0.00 | 85 | 1008.0 |
| 20260505231705 | 53 | 355 | 0.0 | 0.0 | 0.00 | 0.19 | 0.00 | 85 | 1008.0 |
| 20260505231205 | 53 | 29 | 0.0 | 0.0 | 0.00 | 0.19 | 0.00 | 85 | 1008.0 |
| 20260505230706 | 53 | 9 | 0.0 | 0.0 | 0.00 | 0.20 | 0.00 | 86 | 1008.1 |
| 20260505230511 | 53 | 17 | 0.0 | 0.0 | 0.00 | 0.00 | 0.00 | 86 | 1007.0 |
| 20260505230205 | 53 | 328 | 0.0 | 0.0 | 0.00 | 0.20 | 0.00 | 86 | 1008.1 |
| 20260505225706 | 53 | 10 | 0.0 | 0.0 | 0.00 | 0.20 | 0.00 | 86 | 1008.1 |
| 20260505225511 | 53 | 16 | 0.0 | 0.0 | 0.00 | 0.00 | 0.00 | 86 | 1007.0 |
| 20260505225206 | 53 | 52 | 0.0 | 0.0 | 0.00 | 0.21 | 0.00 | 86 | 1008.2 |
| 20260505224705 | 53 | 356 | 0.0 | 0.0 | 0.00 | 0.21 | 0.00 | 86 | 1008.1 |
| 20260505224511 | 53 | 15 | 0.0 | 0.0 | 0.00 | 0.00 | 0.00 | 86 | 1007.1 |
| 20260505223705 | 53 | 13 | 0.0 | 0.0 | 0.00 | 0.22 | 0.00 | 87 | 1008.2 |
| 20260505223511 | 53 | 50 | 0.0 | 0.0 | 0.00 | 0.00 | 0.00 | 86 | 1007.2 |
| 20260505223205 | 53 | 39 | 0.0 | 0.0 | 0.00 | 0.23 | 0.00 | 87 | 1008.2 |
| 20260505222705 | 53 | 31 | 0.0 | 0.0 | 0.00 | 0.23 | 0.00 | 87 | 1008.2 |
| 20260505222205 | 53 | 358 | 0.0 | 0.0 | 0.00 | 0.24 | 0.00 | 87 | 1008.3 |
| 20260505221205 | 53 | 330 | 0.0 | 0.0 | 0.00 | 0.24 | 0.00 | 88 | 1008.3 |
| 20260505220205 | 53 | 36 | 0.0 | 0.0 | 0.00 | 0.24 | 0.00 | 88 | 1008.3 |
| 20260505215705 | 53 | 40 | 0.0 | 0.0 | 0.00 | 0.25 | 0.24 | 88 | 1008.4 |
| 20260505215511 | 53 | 40 | 0.0 | 0.0 | 0.00 | 0.24 | 0.24 | 88 | 1007.3 |
| 20260505215205 | 53 | 41 | 0.0 | 1.0 | 0.00 | 0.25 | 0.24 | 88 | 1008.5 |
| 20260505214705 | 53 | 64 | 0.0 | 0.0 | 0.00 | 0.25 | 0.24 | 88 | 1008.5 |
| 20260505214511 | 53 | 358 | 0.0 | 0.0 | 0.00 | 0.24 | 0.24 | 88 | 1007.4 |
| 20260505213705 | 53 | 39 | 0.0 | 0.0 | 0.00 | 0.28 | 0.24 | 88 | 1008.5 |
| 20260505213205 | 53 | 34 | 0.0 | 0.0 | 0.00 | 0.30 | 0.24 | 88 | 1008.5 |
| 20260505212705 | 53 | 52 | 0.0 | 1.0 | 0.00 | 0.31 | 0.24 | 89 | 1008.5 |
| 20260505212511 | 53 | 54 | 0.0 | 1.0 | 0.00 | 0.24 | 0.24 | 89 | 1007.5 |
| 20260505212206 | 53 | 60 | 0.0 | 0.0 | 0.00 | 0.31 | 0.24 | 89 | 1008.5 |
| 20260505211511 | 53 | 40 | 0.0 | 0.0 | 0.00 | 0.24 | 0.24 | 89 | 1007.4 |
| 20260505210705 | 53 | 43 | 0.0 | 0.0 | 0.00 | 0.33 | 0.24 | 90 | 1008.5 |
| 20260505210511 | 53 | 358 | 0.0 | 0.0 | 0.00 | 0.24 | 0.24 | 90 | 1007.5 |
| 20260505205705 | 53 | 7 | 0.0 | 0.0 | 0.00 | 0.33 | 0.24 | 90 | 1008.5 |
| 20260505205511 | 53 | 7 | 0.0 | 0.0 | 0.00 | 0.24 | 0.24 | 90 | 1007.4 |
| 20260505204511 | 53 | 358 | 0.0 | 0.0 | 0.00 | 0.24 | 0.24 | 89 | 1007.5 |
| 20260505204206 | 53 | 358 | 0.0 | 0.0 | 0.00 | 0.33 | 0.24 | 89 | 1008.6 |
| 20260505203705 | 53 | 3 | 0.0 | 0.0 | 0.00 | 0.33 | 0.24 | 89 | 1008.6 |
| 20260505203511 | 53 | 3 | 0.0 | 0.0 | 0.00 | 0.24 | 0.24 | 89 | 1007.5 |
| 20260505203205 | 53 | 5 | 0.0 | 0.0 | 0.00 | 0.34 | 0.24 | 89 | 1008.6 |
| 20260505202705 | 53 | 13 | 0.0 | 0.0 | 0.00 | 0.34 | 0.24 | 89 | 1008.7 |
| 20260505202511 | 53 | 14 | 0.0 | 0.0 | 0.00 | 0.24 | 0.24 | 89 | 1007.6 |
| 20260505202205 | 53 | 13 | 0.0 | 0.0 | 0.00 | 0.34 | 0.24 | 89 | 1008.7 |
| 20260505201705 | 53 | 10 | 0.0 | 0.0 | 0.00 | 0.34 | 0.24 | 89 | 1008.7 |
| 20260505201512 | 53 | 335 | 0.0 | 0.0 | 0.00 | 0.24 | 0.24 | 89 | 1007.6 |
| 20260505201205 | 53 | 0 | 0.0 | 0.0 | 0.00 | 0.34 | 0.24 | 89 | 1008.7 |
| 20260505200705 | 53 | 357 | 0.0 | 0.0 | 0.00 | 0.34 | 0.24 | 89 | 1008.7 |
| 20260505200511 | 53 | 3 | 0.0 | 0.0 | 0.00 | 0.24 | 0.24 | 89 | 1007.6 |
| 20260505200205 | 53 | 358 | 0.0 | 0.0 | 0.00 | 0.34 | 0.24 | 89 | 1008.6 |
| 20260505195705 | 53 | 355 | 0.0 | 0.0 | 0.00 | 0.34 | 0.24 | 88 | 1008.6 |
| 20260505195205 | 53 | 356 | 0.0 | 0.0 | 0.00 | 0.34 | 0.24 | 88 | 1008.6 |
| 20260505194705 | 53 | 350 | 0.0 | 0.0 | 0.00 | 0.35 | 0.24 | 88 | 1008.6 |
| 20260505194510 | 53 | 350 | 0.0 | 0.0 | 0.00 | 0.24 | 0.24 | 88 | 1007.6 |
| 20260505193705 | 54 | 340 | 0.0 | 0.0 | 0.00 | 0.35 | 0.24 | 88 | 1008.6 |
| 20260505193511 | 54 | 345 | 0.0 | 0.0 | 0.00 | 0.24 | 0.24 | 88 | 1007.6 |
| 20260505193205 | 54 | 303 | 0.0 | 0.0 | 0.00 | 0.37 | 0.24 | 88 | 1008.7 |
| 20260505192205 | 54 | 7 | 0.0 | 0.0 | 0.00 | 0.38 | 0.24 | 87 | 1008.7 |
| 20260505191705 | 54 | 3 | 0.0 | 0.0 | 0.00 | 0.39 | 0.24 | 87 | 1008.6 |
| 20260505191511 | 54 | 4 | 0.0 | 0.0 | 0.00 | 0.24 | 0.24 | 87 | 1007.5 |
| 20260505191205 | 54 | 2 | 0.0 | 0.0 | 0.00 | 0.41 | 0.24 | 87 | 1008.5 |
| 20260505190705 | 54 | 4 | 0.0 | 0.0 | 0.00 | 0.43 | 0.24 | 87 | 1008.4 |
| 20260505190510 | 54 | 356 | 0.0 | 0.0 | 0.00 | 0.24 | 0.24 | 87 | 1007.4 |
| 20260505185705 | 54 | 1 | 0.0 | 0.0 | 0.00 | 0.49 | 0.24 | 86 | 1008.3 |
| 20260505185510 | 54 | 7 | 0.0 | 0.0 | 0.00 | 0.24 | 0.24 | 86 | 1007.3 |
| 20260505185205 | 54 | 6 | 0.0 | 0.0 | 0.00 | 0.50 | 0.24 | 86 | 1008.3 |
| 20260505184705 | 54 | 347 | 0.0 | 0.0 | 0.00 | 0.53 | 0.24 | 86 | 1008.3 |
| 20260505184511 | 54 | 350 | 0.0 | 0.0 | 0.00 | 0.24 | 0.24 | 86 | 1007.3 |
| 20260505184205 | 54 | 352 | 0.0 | 0.0 | 0.00 | 0.54 | 0.24 | 86 | 1008.3 |
| 20260505183705 | 54 | 15 | 0.0 | 0.0 | 0.00 | 0.54 | 0.24 | 86 | 1008.4 |
| 20260505183511 | 54 | 38 | 0.0 | 0.0 | 0.00 | 0.24 | 0.24 | 86 | 1007.4 |
| 20260505183205 | 54 | 16 | 0.0 | 0.0 | 0.00 | 0.54 | 0.24 | 86 | 1008.4 |
| 20260505182705 | 54 | 36 | 0.0 | 0.0 | 0.00 | 0.54 | 0.24 | 86 | 1008.4 |
| 20260505182510 | 54 | 24 | 0.0 | 0.0 | 0.00 | 0.24 | 0.24 | 86 | 1007.4 |
| 20260505182205 | 54 | 25 | 0.0 | 0.0 | 0.00 | 0.56 | 0.24 | 86 | 1008.4 |
| 20260505181705 | 54 | 356 | 0.0 | 0.0 | 0.00 | 0.56 | 0.24 | 86 | 1008.4 |
| 20260505181510 | 54 | 356 | 0.0 | 0.0 | 0.00 | 0.24 | 0.24 | 86 | 1007.3 |
| 20260505181205 | 54 | 76 | 0.0 | 0.0 | 0.00 | 0.56 | 0.24 | 86 | 1008.3 |
| 20260505180705 | 54 | 21 | 0.0 | 0.0 | 0.00 | 0.56 | 0.24 | 86 | 1008.3 |
| 20260505180510 | 54 | 33 | 0.0 | 0.0 | 0.00 | 0.24 | 0.24 | 86 | 1007.3 |
| 20260505175705 | 54 | 75 | 0.0 | 0.0 | 0.00 | 0.56 | 0.24 | 86 | 1008.3 |
| 20260505175510 | 54 | 76 | 0.0 | 0.0 | 0.00 | 0.24 | 0.24 | 86 | 1007.3 |
| 20260505175205 | 54 | 59 | 0.0 | 0.0 | 0.00 | 0.56 | 0.24 | 86 | 1008.4 |
| 20260505174704 | 54 | 91 | 0.0 | 0.0 | 0.00 | 0.56 | 0.24 | 86 | 1008.4 |
| 20260505174510 | 54 | 91 | 0.0 | 0.0 | 0.00 | 0.24 | 0.24 | 85 | 1007.4 |
| 20260505174204 | 55 | 42 | 0.0 | 0.0 | 0.00 | 0.56 | 0.24 | 86 | 1008.4 |
| 20260505173704 | 55 | 25 | 0.0 | 0.0 | 0.00 | 0.56 | 0.24 | 85 | 1008.4 |
| 20260505173204 | 55 | 24 | 0.0 | 0.0 | 0.00 | 0.56 | 0.24 | 85 | 1008.4 |
| 20260505172705 | 55 | 337 | 0.0 | 0.0 | 0.00 | 0.56 | 0.24 | 85 | 1008.4 |
| 20260505172205 | 55 | 48 | 0.0 | 0.0 | 0.00 | 0.56 | 0.24 | 85 | 1008.4 |
| 20260505171510 | 54 | 54 | 0.0 | 0.0 | 0.00 | 0.24 | 0.24 | 84 | 1007.4 |
| 20260505171205 | 54 | 350 | 0.0 | 0.0 | 0.00 | 0.56 | 0.24 | 85 | 1008.5 |
| 20260505170705 | 54 | 124 | 0.0 | 0.0 | 0.00 | 0.56 | 0.24 | 84 | 1008.6 |
| 20260505170510 | 54 | 135 | 0.0 | 0.0 | 0.00 | 0.24 | 0.24 | 84 | 1007.5 |
| 20260505170204 | 54 | 18 | 0.0 | 0.0 | 0.00 | 0.56 | 0.24 | 84 | 1008.7 |
| 20260505165705 | 54 | 59 | 0.0 | 0.0 | 0.00 | 0.56 | 0.24 | 84 | 1008.7 |
| 20260505165205 | 55 | 23 | 0.0 | 0.0 | 0.00 | 0.56 | 0.24 | 84 | 1008.7 |
| 20260505164705 | 55 | 93 | 0.0 | 0.0 | 0.00 | 0.56 | 0.24 | 84 | 1008.7 |
| 20260505164510 | 55 | 40 | 0.0 | 0.0 | 0.00 | 0.24 | 0.24 | 84 | 1007.6 |
| 20260505164205 | 55 | 64 | 0.0 | 0.0 | 0.00 | 0.56 | 0.24 | 84 | 1008.7 |
| 20260505163704 | 55 | 29 | 0.0 | 0.0 | 0.00 | 0.56 | 0.24 | 84 | 1008.7 |
| 20260505163510 | 55 | 25 | 0.0 | 0.0 | 0.00 | 0.24 | 0.24 | 84 | 1007.6 |
| 20260505163205 | 55 | 349 | 0.0 | 0.0 | 0.00 | 0.56 | 0.24 | 84 | 1008.7 |
| 20260505162511 | 54 | 350 | 0.0 | 0.0 | 0.00 | 0.24 | 0.24 | 84 | 1007.6 |
| 20260505162205 | 54 | 21 | 0.0 | 0.0 | 0.00 | 0.56 | 0.24 | 84 | 1008.7 |
| 20260505161510 | 54 | 323 | 0.0 | 0.0 | 0.00 | 0.24 | 0.24 | 84 | 1007.7 |
| 20260505161205 | 54 | 335 | 0.0 | 0.0 | 0.00 | 0.56 | 0.24 | 84 | 1008.7 |
| 20260505160705 | 54 | 345 | 0.0 | 0.0 | 0.00 | 0.56 | 0.24 | 85 | 1008.7 |
| 20260505160205 | 54 | 5 | 0.0 | 0.0 | 0.00 | 0.56 | 0.24 | 85 | 1008.7 |
| 20260505153205 | 54 | 16 | 0.0 | 0.0 | 0.00 | 0.56 | 0.24 | 86 | 1009.0 |
| 20260505152705 | 54 | 21 | 0.0 | 0.0 | 0.00 | 0.56 | 0.24 | 86 | 1009.1 |
| 20260505152510 | 54 | 345 | 0.0 | 0.0 | 0.00 | 0.24 | 0.24 | 86 | 1008.0 |
| 20260505152204 | 54 | 12 | 0.0 | 0.0 | 0.00 | 0.56 | 0.24 | 86 | 1009.1 |
| 20260505151705 | 54 | 352 | 0.0 | 0.0 | 0.00 | 0.56 | 0.24 | 86 | 1009.2 |
| 20260505151205 | 54 | 356 | 0.0 | 0.0 | 0.00 | 0.56 | 0.24 | 86 | 1009.2 |
| 20260505150705 | 54 | 354 | 0.0 | 0.0 | 0.00 | 0.56 | 0.24 | 86 | 1009.3 |
| 20260505150510 | 54 | 25 | 0.0 | 0.0 | 0.00 | 0.24 | 0.24 | 87 | 1008.3 |
| 20260505150205 | 54 | 350 | 0.0 | 0.0 | 0.00 | 0.56 | 0.24 | 87 | 1009.3 |
| 20260505140510 | 53 | 9 | 0.0 | 0.0 | 0.00 | 0.24 | 0.24 | 89 | 1008.6 |
| 20260505140205 | 53 | 340 | 0.0 | 0.0 | 0.00 | 0.57 | 0.24 | 90 | 1009.7 |
| 20260505130204 | 51 | 271 | 0.0 | 0.0 | 0.00 | 0.57 | 0.24 | 91 | 1010.0 |
| 20260505124704 | 51 | 292 | 0.0 | 0.0 | 0.00 | 0.57 | 0.24 | 90 | 1010.1 |
| 20260505124510 | 51 | 14 | 0.0 | 0.0 | 0.00 | 0.24 | 0.24 | 90 | 1009.0 |
| 20260505124204 | 51 | 331 | 0.0 | 0.0 | 0.00 | 0.57 | 0.24 | 91 | 1010.1 |
| 20260505123705 | 51 | 358 | 0.0 | 0.0 | 0.00 | 0.57 | 0.24 | 91 | 1010.1 |
| 20260505123510 | 51 | 23 | 0.0 | 0.0 | 0.00 | 0.24 | 0.24 | 91 | 1009.0 |
| 20260505123204 | 51 | 340 | 0.0 | 0.0 | 0.00 | 0.57 | 0.24 | 91 | 1010.1 |
| 20260505122705 | 51 | 28 | 0.0 | 0.0 | 0.00 | 0.57 | 0.24 | 90 | 1010.1 |
| 20260505122205 | 51 | 6 | 0.0 | 0.0 | 0.00 | 0.57 | 0.24 | 90 | 1010.1 |
| 20260505121704 | 51 | 358 | 0.0 | 0.0 | 0.00 | 0.57 | 0.24 | 90 | 1010.2 |
| 20260505121510 | 51 | 345 | 0.0 | 0.0 | 0.00 | 0.24 | 0.24 | 90 | 1009.1 |
| 20260505121204 | 50 | 350 | 0.0 | 0.0 | 0.00 | 0.57 | 0.24 | 90 | 1010.2 |
| 20260505120705 | 50 | 26 | 0.0 | 0.0 | 0.00 | 0.57 | 0.24 | 89 | 1010.2 |
| 20260505120510 | 50 | 231 | 0.0 | 0.0 | 0.00 | 0.24 | 0.24 | 89 | 1009.1 |
| 20260505120204 | 51 | 341 | 0.0 | 0.0 | 0.00 | 0.57 | 0.24 | 89 | 1010.3 |
| 20260505115704 | 51 | 252 | 0.0 | 0.0 | 0.00 | 0.57 | 0.24 | 90 | 1010.3 |
| 20260505115510 | 51 | 359 | 0.0 | 0.0 | 0.00 | 0.24 | 0.24 | 89 | 1009.3 |
| 20260505115204 | 50 | 55 | 0.0 | 0.0 | 0.00 | 0.57 | 0.24 | 89 | 1010.3 |
| 20260505114705 | 50 | 357 | 0.0 | 0.0 | 0.00 | 0.57 | 0.24 | 89 | 1010.3 |
| 20260505114204 | 50 | 358 | 0.0 | 0.0 | 0.00 | 0.57 | 0.24 | 88 | 1010.3 |
| 20260505113704 | 50 | 296 | 0.0 | 0.0 | 0.00 | 0.57 | 0.24 | 88 | 1010.4 |
| 20260505113510 | 50 | 20 | 0.0 | 0.0 | 0.00 | 0.24 | 0.24 | 88 | 1009.4 |
| 20260505113204 | 50 | 21 | 0.0 | 0.0 | 0.00 | 0.57 | 0.24 | 88 | 1010.3 |
| 20260505112704 | 50 | 14 | 0.0 | 0.0 | 0.00 | 0.57 | 0.24 | 88 | 1010.3 |
| 20260505112510 | 50 | 340 | 0.0 | 0.0 | 0.00 | 0.24 | 0.24 | 88 | 1009.3 |
| 20260505112205 | 50 | 355 | 0.0 | 0.0 | 0.00 | 0.57 | 0.24 | 87 | 1010.4 |
| 20260505111510 | 50 | 358 | 0.0 | 0.0 | 0.00 | 0.24 | 0.24 | 87 | 1009.4 |
| 20260505111205 | 50 | 15 | 0.0 | 0.0 | 0.00 | 0.57 | 0.24 | 87 | 1010.4 |
| 20260505110704 | 50 | 42 | 0.0 | 0.0 | 0.00 | 0.57 | 0.24 | 87 | 1010.5 |
| 20260505102204 | 50 | 0 | 0.0 | 0.0 | 0.00 | 0.63 | 0.24 | 85 | 1010.7 |
| 20260505101704 | 50 | 354 | 0.0 | 0.0 | 0.00 | 0.63 | 0.24 | 85 | 1010.7 |
| 20260505101510 | 50 | 340 | 0.0 | 0.0 | 0.00 | 0.24 | 0.24 | 86 | 1009.7 |
| 20260505101204 | 50 | 357 | 0.0 | 0.0 | 0.00 | 0.63 | 0.24 | 86 | 1010.7 |
| 20260505100704 | 50 | 336 | 0.0 | 0.0 | 0.00 | 0.63 | 0.24 | 86 | 1010.7 |
| 20260505100204 | 50 | 15 | 0.0 | 0.0 | 0.00 | 0.63 | 0.24 | 87 | 1010.6 |
| 20260505095512 | 50 | 358 | 0.0 | 0.0 | 0.00 | 0.24 | 0.24 | 87 | 1009.6 |
| 20260505094512 | 49 | 294 | 0.0 | 0.0 | 0.00 | 0.24 | 0.24 | 88 | 1009.7 |
| 20260505093704 | 49 | 16 | 0.0 | 0.0 | 0.00 | 0.63 | 0.24 | 87 | 1010.8 |
| 20260505093512 | 49 | 10 | 0.0 | 0.0 | 0.00 | 0.24 | 0.24 | 87 | 1009.7 |
| 20260505093204 | 49 | 359 | 0.0 | 0.0 | 0.00 | 0.63 | 0.24 | 87 | 1010.8 |
| 20260505092704 | 49 | 357 | 0.0 | 0.0 | 0.00 | 0.63 | 0.24 | 87 | 1010.7 |
| 20260505092512 | 49 | 24 | 0.0 | 0.0 | 0.00 | 0.24 | 0.24 | 87 | 1009.7 |
| 20260505092204 | 49 | 336 | 0.0 | 0.0 | 0.00 | 0.63 | 0.24 | 88 | 1010.7 |
| 20260505091704 | 49 | 13 | 0.0 | 0.0 | 0.00 | 0.63 | 0.24 | 88 | 1010.8 |
| 20260505091515 | 49 | 331 | 0.0 | 0.0 | 0.00 | 0.24 | 0.24 | 88 | 1009.7 |
| 20260505091204 | 49 | 351 | 0.0 | 0.0 | 0.00 | 0.63 | 0.24 | 88 | 1010.8 |
| 20260505090704 | 49 | 9 | 0.0 | 0.0 | 0.00 | 0.63 | 0.24 | 88 | 1010.8 |
| 20260505090204 | 49 | 319 | 0.0 | 0.0 | 0.01 | 0.63 | 0.24 | 88 | 1010.9 |
| 20260505085704 | 49 | 4 | 0.0 | 0.0 | 0.01 | 0.63 | 0.24 | 88 | 1010.9 |
| 20260505085512 | 49 | 7 | 0.0 | 0.0 | 0.01 | 0.24 | 0.24 | 88 | 1009.9 |
| 20260505085204 | 48 | 358 | 0.0 | 0.0 | 0.01 | 0.63 | 0.24 | 88 | 1010.9 |
| 20260505084204 | 48 | 7 | 0.0 | 0.0 | 0.01 | 0.63 | 0.24 | 89 | 1010.9 |
| 20260505083704 | 48 | 359 | 0.0 | 0.0 | 0.01 | 0.63 | 0.24 | 89 | 1011.1 |
| 20260505083512 | 48 | 258 | 0.0 | 0.0 | 0.01 | 0.24 | 0.24 | 89 | 1010.0 |
| 20260505083204 | 48 | 297 | 0.0 | 0.0 | 0.01 | 0.63 | 0.24 | 90 | 1011.1 |
| 20260505082704 | 48 | 350 | 0.0 | 0.0 | 0.01 | 0.63 | 0.24 | 90 | 1011.0 |
| 20260505082512 | 48 | 15 | 0.0 | 0.0 | 0.01 | 0.24 | 0.24 | 90 | 1009.9 |